,,,PA_Meas_PMT16A,,PR_Meas_QMR101_102,,RH_Meas_QMH101,,SR_Meas_QMS101,,TA_Meas_QMH101,,GenWind,,GenWind,
date,time,status,PA,status,PR,status,RH,status,SR,status,TA,status,DirAvg,status,SpdAvg,
2008-08-01, 07:35:04,VALID,1006.38,VALID,0,VALID,96.6274,VALID,41.4319,VALID,22.6721,VALID,354,VALID,1.11172,
2008-08-01, 07:36:04,VALID,1006.41,VALID,0,VALID,96.6503,VALID,39.9235,VALID,22.6509,VALID,350,VALID,0.834766,
2008-08-01, 07:37:04,VALID,1006.39,VALID,0,VALID,96.6655,VALID,38.2139,VALID,22.6721,VALID,16,VALID,1.25156,
2008-08-01, 07:38:04,VALID,1006.41,VALID,0,VALID,96.6732,VALID,36.3032,VALID,22.6915,VALID,2,VALID,0.938281,
2008-08-01, 07:39:04,VALID,1006.41,VALID,0,VALID,96.6503,VALID,34.0908,VALID,22.6915,VALID,4,VALID,1.01484,
2008-08-01, 07:40:04,VALID,1006.43,VALID,0,VALID,96.6503,VALID,32.0796,VALID,22.6915,VALID,8,VALID,0.906641,
2008-08-01, 07:41:04,VALID,1006.47,VALID,0,VALID,96.6503,VALID,30.4706,VALID,22.6915,VALID,359,VALID,1.65352,
2008-08-01, 07:42:04,VALID,1006.51,VALID,0,VALID,96.635,VALID,29.3644,VALID,22.6915,VALID,354,VALID,0.935938,
2008-08-01, 07:43:04,VALID,1006.59,VALID,0,VALID,96.6655,VALID,28.2582,VALID,22.6721,VALID,355,VALID,1.25625,
2008-08-01, 07:44:04,VALID,1006.55,VALID,0.5,VALID,96.635,VALID,28.1576,VALID,22.6721,VALID,348,VALID,1.31523,
2008-08-01, 07:45:04,VALID,1006.62,VALID,0,VALID,96.6503,VALID,28.6604,VALID,22.7127,VALID,348,VALID,1.37109,
2008-08-01, 07:46:04,VALID,1006.62,VALID,0,VALID,96.635,VALID,30.6717,VALID,22.6915,VALID,350,VALID,1.56562,
2008-08-01, 07:47:04,VALID,1006.61,VALID,0,VALID,96.6198,VALID,34.0908,VALID,22.6915,VALID,8,VALID,1.62695,
2008-08-01, 07:48:04,VALID,1006.63,VALID,0,VALID,96.635,VALID,38.415,VALID,22.711,VALID,346,VALID,1.10742,
2008-08-01, 07:49:04,VALID,1006.57,VALID,0,VALID,96.6198,VALID,42.5381,VALID,22.6915,VALID,1,VALID,1.43281,
2008-08-01, 07:50:04,VALID,1006.59,VALID,0,VALID,96.6045,VALID,45.6556,VALID,22.6915,VALID,360,VALID,1.60156,
2008-08-01, 07:51:04,VALID,1006.58,VALID,0,VALID,96.6274,VALID,47.2646,VALID,22.6915,VALID,354,VALID,1.10273,
2008-08-01, 07:52:04,VALID,1006.57,VALID,0,VALID,96.5969,VALID,47.9685,VALID,22.6898,VALID,352,VALID,1.25508,
2008-08-01, 07:53:04,VALID,1006.58,VALID,0,VALID,96.6045,VALID,47.5663,VALID,22.711,VALID,356,VALID,1.84336,
2008-08-01, 07:54:04,VALID,1006.57,VALID,0,VALID,96.5816,VALID,46.9629,VALID,22.711,VALID,356,VALID,1.76094,
2008-08-01, 07:55:04,VALID,1006.58,VALID,0,VALID,96.5816,VALID,45.9573,VALID,22.7305,VALID,345,VALID,1.63398,
2008-08-01, 07:56:04,VALID,1006.55,VALID,0,VALID,96.5969,VALID,44.7505,VALID,22.7711,VALID,258,VALID,0.378125,
2008-08-01, 07:57:04,VALID,1006.57,VALID,0,VALID,96.6121,VALID,43.0409,VALID,22.7694,VALID,344,VALID,0.561328,
2008-08-01, 07:58:04,VALID,1006.58,VALID,0,VALID,96.6045,VALID,40.1246,VALID,22.7694,VALID,285,VALID,0.534766,
2008-08-01, 07:59:04,VALID,1006.61,VALID,0,VALID,96.6198,VALID,36.3032,VALID,22.8295,VALID,284,VALID,0.357031,
2008-08-01, 08:00:04,VALID,1006.68,VALID,0,VALID,96.6274,VALID,31.8785,VALID,22.8278,VALID,338,VALID,0.394531,
2008-08-01, 08:01:04,VALID,1006.67,VALID,0,VALID,96.574,VALID,28.0571,VALID,22.8295,VALID,348,VALID,1.13008,
2008-08-01, 08:02:04,VALID,1006.36,VALID,0,VALID,96.574,VALID,25.2413,VALID,22.81,VALID,349,VALID,0.720312,
2008-08-01, 08:03:04,VALID,1005.52,VALID,0,VALID,96.5816,VALID,23.23,VALID,22.7888,VALID,5,VALID,1.225,
2008-08-01, 08:04:04,VALID,1007.17,VALID,0,VALID,96.5511,VALID,21.7216,VALID,22.7694,VALID,1,VALID,1.06875,
2008-08-01, 10:40:04,VALID,1007.14,VALID,0,VALID,96.513,VALID,189.36,VALID,23.5496,VALID,346,VALID,0.364062,
2008-08-01, 10:41:04,VALID,1007.1,VALID,0,VALID,96.5282,VALID,196.098,VALID,23.6257,VALID,354,VALID,0.325,
2008-08-01, 10:42:04,VALID,1007.04,VALID,0,VALID,96.4977,VALID,206.154,VALID,23.6062,VALID,317,VALID,0.386328,
2008-08-01, 10:43:04,VALID,1007.03,VALID,0,VALID,96.4977,VALID,214.802,VALID,23.6469,VALID,317,VALID,0.331641,
2008-08-01, 10:44:04,VALID,1007,VALID,0,VALID,96.3604,VALID,223.853,VALID,23.5319,VALID,282,VALID,1.31133,
2008-08-01, 10:45:04,VALID,1006.97,VALID,0,VALID,96.3909,VALID,231.194,VALID,23.5125,VALID,339,VALID,1.25898,
2008-08-01, 10:46:04,VALID,1006.97,VALID,0.5,VALID,96.4443,VALID,237.228,VALID,23.5302,VALID,4,VALID,0.695703,
2008-08-01, 10:47:04,VALID,1006.97,VALID,0,VALID,96.4443,VALID,241.954,VALID,23.5302,VALID,4,VALID,0.614844,
2008-08-01, 10:48:04,VALID,1006.94,VALID,0,VALID,96.4443,VALID,245.776,VALID,23.6098,VALID,355,VALID,0.664844,
2008-08-01, 10:49:04,VALID,1006.91,VALID,0,VALID,96.4138,VALID,248.793,VALID,23.5673,VALID,304,VALID,0.528906,
2008-08-01, 10:50:04,VALID,1006.87,VALID,0,VALID,96.4214,VALID,249.698,VALID,23.6469,VALID,342,VALID,0.663281,
2008-08-01, 10:51:04,VALID,1006.89,VALID,0,VALID,96.3909,VALID,250.301,VALID,23.608,VALID,333,VALID,0.979688,
2008-08-01, 10:52:04,VALID,1006.83,VALID,0,VALID,96.4062,VALID,248.592,VALID,23.6275,VALID,301,VALID,0.194141,
2008-08-01, 10:53:04,VALID,1006.82,VALID,0,VALID,96.4138,VALID,244.67,VALID,23.7053,VALID,340,VALID,0.567578,
2008-08-01, 10:54:04,VALID,1006.77,VALID,0,VALID,96.3528,VALID,240.446,VALID,23.6257,VALID,356,VALID,1.35234,
2008-08-01, 10:55:04,VALID,1006.76,VALID,0,VALID,96.3299,VALID,236.222,VALID,23.608,VALID,341,VALID,0.582031,
2008-08-01, 10:56:04,VALID,1006.74,VALID,0,VALID,96.3146,VALID,232.3,VALID,23.6275,VALID,357,VALID,0.695313,
2008-08-01, 10:57:04,VALID,1006.73,VALID,0,VALID,96.2688,VALID,229.284,VALID,23.5885,VALID,356,VALID,1.22109,
2008-08-01, 10:58:04,VALID,1006.72,VALID,0,VALID,96.246,VALID,226.971,VALID,23.5691,VALID,352,VALID,0.988281,
2008-08-01, 10:59:04,VALID,1006.7,VALID,0,VALID,96.2383,VALID,225.663,VALID,23.5885,VALID,351,VALID,1.26016,
2008-08-01, 11:00:04,VALID,1006.68,VALID,0,VALID,96.2307,VALID,223.652,VALID,23.5885,VALID,350,VALID,1.54492,
2008-08-01, 11:01:04,VALID,1006.7,VALID,0,VALID,96.2154,VALID,222.144,VALID,23.6469,VALID,352,VALID,1.2418,
2008-08-01, 11:02:04,VALID,1006.69,VALID,0,VALID,96.2002,VALID,220.333,VALID,23.6293,VALID,252,VALID,0.547266,
2008-08-01, 11:03:04,VALID,1006.66,VALID,0,VALID,96.1392,VALID,218.322,VALID,23.5903,VALID,346,VALID,1.48516,
2008-08-01, 11:04:04,VALID,1006.62,VALID,0,VALID,96.1392,VALID,216.512,VALID,23.6098,VALID,339,VALID,1.28516,
2008-08-01, 11:05:04,VALID,1006.57,VALID,0,VALID,96.1544,VALID,215.205,VALID,23.608,VALID,11,VALID,0.733984,
2008-08-01, 11:06:04,VALID,1006.55,VALID,0,VALID,96.162,VALID,214.702,VALID,23.6682,VALID,358,VALID,1.22695,
2008-08-01, 11:07:04,VALID,1006.5,VALID,0,VALID,96.1544,VALID,214.3,VALID,23.6877,VALID,358,VALID,1.47305,
2008-08-01, 11:08:04,VALID,1006.48,VALID,0,VALID,96.0476,VALID,214.4,VALID,23.6098,VALID,8,VALID,1.61523,
2008-08-01, 11:09:04,VALID,1006.52,VALID,0,VALID,96.0629,VALID,215.607,VALID,23.6682,VALID,353,VALID,1.13867,
2008-08-01, 11:10:04,VALID,1006.52,VALID,0,VALID,95.9484,VALID,216.613,VALID,23.5868,VALID,354,VALID,1.79648,
2008-08-01, 11:11:04,VALID,1006.53,VALID,0,VALID,95.9713,VALID,216.914,VALID,23.6275,VALID,350,VALID,0.317578,
2008-08-01, 11:12:04,VALID,1006.53,VALID,0,VALID,96.0857,VALID,215.808,VALID,23.7053,VALID,355,VALID,0.567578,
2008-08-01, 11:13:04,VALID,1006.54,VALID,0,VALID,96.1239,VALID,214.601,VALID,23.7637,VALID,1,VALID,0.595312,
2008-08-01, 11:14:04,VALID,1006.53,VALID,0,VALID,96.0323,VALID,213.294,VALID,23.7053,VALID,348,VALID,1.56016,
2008-08-01, 11:15:04,VALID,1006.55,VALID,0,VALID,96.0018,VALID,213.093,VALID,23.7035,VALID,360,VALID,1.05625,
2008-08-01, 11:16:04,VALID,1006.56,VALID,0,VALID,95.9332,VALID,213.897,VALID,23.7053,VALID,1,VALID,0.999609,
2008-08-01, 11:17:04,VALID,1006.53,VALID,0,VALID,95.895,VALID,215.205,VALID,23.6646,VALID,349,VALID,1.07539,
2008-08-01, 11:18:04,VALID,1006.51,VALID,0,VALID,95.8874,VALID,217.216,VALID,23.7248,VALID,5,VALID,0.888281,
2008-08-01, 11:19:04,VALID,1006.5,VALID,0,VALID,95.9103,VALID,219.428,VALID,23.7035,VALID,6,VALID,0.532812,
2008-08-01, 11:20:04,VALID,1006.49,VALID,0,VALID,95.9255,VALID,221.641,VALID,23.7637,VALID,353,VALID,0.81875,
2008-08-01, 11:21:04,VALID,1006.48,VALID,0,VALID,96.0476,VALID,223.451,VALID,23.8805,VALID,301,VALID,0.235547,
2008-08-01, 11:22:04,VALID,1006.47,VALID,0,VALID,96.0552,VALID,224.758,VALID,23.8982,VALID,310,VALID,0.499609,
2008-08-01, 11:23:04,VALID,1006.49,VALID,0,VALID,96.1239,VALID,225.663,VALID,24.0168,VALID,354,VALID,0.821875,
2008-08-01, 11:24:04,VALID,1006.49,VALID,0,VALID,95.9408,VALID,226.367,VALID,23.9389,VALID,350,VALID,1.83672,
2008-08-01, 11:25:04,VALID,1006.49,VALID,0,VALID,95.8187,VALID,227.272,VALID,23.9389,VALID,356,VALID,0.865625,
2008-08-01, 11:26:04,VALID,1006.48,VALID,0,VALID,95.5822,VALID,228.278,VALID,23.9,VALID,355,VALID,1.36328,
2008-08-01, 11:27:04,VALID,1006.49,VALID,0,VALID,95.6433,VALID,229.284,VALID,23.9195,VALID,6,VALID,0.907812,
2008-08-01, 11:28:04,VALID,1006.48,VALID,0,VALID,95.7196,VALID,230.691,VALID,23.9195,VALID,22,VALID,0.516016,
2008-08-01, 11:29:04,VALID,1006.49,VALID,0,VALID,95.7653,VALID,232.3,VALID,23.9584,VALID,345,VALID,0.505469,
2008-08-01, 11:30:04,VALID,1006.5,VALID,0,VALID,95.834,VALID,234.111,VALID,23.9955,VALID,346,VALID,0.351953,
2008-08-01, 11:31:04,VALID,1006.51,VALID,0,VALID,95.895,VALID,235.619,VALID,24.0947,VALID,11,VALID,0,
2008-08-01, 11:32:04,VALID,1006.48,VALID,0,VALID,95.9561,VALID,238.938,VALID,24.192,VALID,348,VALID,0.305859,
2008-08-01, 11:33:04,VALID,1006.54,VALID,0,VALID,95.9637,VALID,240.748,VALID,24.231,VALID,350,VALID,0.414844,
2008-08-01, 11:34:04,VALID,1006.55,VALID,0,VALID,95.9713,VALID,241.351,VALID,24.2894,VALID,327,VALID,0.183984,
2008-08-01, 11:35:04,VALID,1006.51,VALID,0,VALID,95.689,VALID,246.178,VALID,24.2504,VALID,291,VALID,1.26016,
2008-08-01, 11:36:04,VALID,1006.52,VALID,0,VALID,95.1932,VALID,252.011,VALID,24.1939,VALID,338,VALID,0.730078,
2008-08-01, 11:37:04,VALID,1006.51,VALID,0,VALID,95.1627,VALID,255.832,VALID,24.1142,VALID,313,VALID,0.740625,
2008-08-01, 11:38:04,VALID,1006.52,VALID,0,VALID,94.9948,VALID,258.849,VALID,24.0947,VALID,301,VALID,1.02617,
2008-08-01, 11:39:04,VALID,1006.5,VALID,0,VALID,94.2701,VALID,261.263,VALID,23.9602,VALID,287,VALID,1.11484,
2008-08-01, 11:40:04,VALID,1006.49,VALID,0,VALID,94.766,VALID,266.19,VALID,23.9389,VALID,302,VALID,0.737891,
2008-08-01, 11:41:04,VALID,1006.46,VALID,0,VALID,95.2695,VALID,266.894,VALID,24.0363,VALID,344,VALID,0.339063,
2008-08-01, 11:42:04,VALID,1006.46,VALID,0,VALID,95.1703,VALID,271.822,VALID,24.0752,VALID,343,VALID,0.525,
2008-08-01, 11:43:04,VALID,1006.48,VALID,0,VALID,95.033,VALID,272.123,VALID,24.1336,VALID,350,VALID,0.705078,
2008-08-01, 11:44:04,VALID,1006.46,VALID,0,VALID,95.0253,VALID,276.045,VALID,24.1336,VALID,242,VALID,0.876562,
2008-08-01, 11:45:04,VALID,1006.48,VALID,0,VALID,95.1855,VALID,283.286,VALID,24.2717,VALID,264,VALID,0.436719,
2008-08-01, 11:46:04,VALID,1006.46,VALID,0,VALID,94.6973,VALID,294.348,VALID,24.2328,VALID,347,VALID,1.02695,
2008-08-01, 11:47:04,VALID,1006.46,VALID,0,VALID,94.4913,VALID,307.924,VALID,24.2523,VALID,358,VALID,1.29023,
2008-08-01, 11:48:04,VALID,1006.5,VALID,0,VALID,94.2853,VALID,318.785,VALID,24.2504,VALID,338,VALID,0.544531,
2008-08-01, 11:49:04,VALID,1006.46,VALID,0,VALID,93.9268,VALID,325.723,VALID,24.2328,VALID,342,VALID,1.1707,
2008-08-01, 11:50:04,VALID,1006.48,VALID,0,VALID,94.3006,VALID,331.355,VALID,24.2912,VALID,360,VALID,0.617188,
2008-08-01, 11:51:04,VALID,1006.46,VALID,0,VALID,94.5905,VALID,339.5,VALID,24.3691,VALID,304,VALID,0.660156,
2008-08-01, 11:52:04,VALID,1006.46,VALID,0,VALID,94.3616,VALID,347.948,VALID,24.3673,VALID,350,VALID,0.610937,
2008-08-01, 11:53:04,VALID,1006.47,VALID,0,VALID,93.5987,VALID,351.065,VALID,24.3673,VALID,301,VALID,0.776172,
2008-08-01, 11:54:04,VALID,1006.45,VALID,0,VALID,93.6674,VALID,354.082,VALID,24.408,VALID,355,VALID,1.06758,
2008-08-01, 11:55:04,VALID,1006.42,VALID,0,VALID,93.3928,VALID,353.177,VALID,24.4257,VALID,357,VALID,1.04883,
2008-08-01, 11:56:04,VALID,1006.45,VALID,0,VALID,92.6528,VALID,349.657,VALID,24.3867,VALID,356,VALID,0.963281,
2008-08-01, 11:57:04,VALID,1006.4,VALID,0,VALID,93.2631,VALID,351.266,VALID,24.4062,VALID,1,VALID,0.419531,
2008-08-01, 11:58:04,VALID,1006.41,VALID,0,VALID,93.9115,VALID,347.646,VALID,24.4822,VALID,354,VALID,0.556641,
2008-08-01, 11:59:04,VALID,1006.39,VALID,0,VALID,93.5606,VALID,345.031,VALID,24.523,VALID,7,VALID,0.260547,
2008-08-01, 12:00:04,VALID,1006.35,VALID,0,VALID,93.7818,VALID,351.97,VALID,24.5814,VALID,10,VALID,0.625,
2008-08-01, 12:01:04,VALID,1006.37,VALID,0,VALID,93.8963,VALID,359.211,VALID,24.6593,VALID,328,VALID,0.225391,
2008-08-01, 12:02:04,VALID,1006.35,VALID,0,VALID,93.1639,VALID,354.585,VALID,24.6983,VALID,270,VALID,0.664844,
2008-08-01, 12:03:04,VALID,1006.36,VALID,0,VALID,92.8053,VALID,339.4,VALID,24.6983,VALID,261,VALID,0.232812,
2008-08-01, 12:04:04,VALID,1006.37,VALID,0,VALID,92.9426,VALID,326.226,VALID,24.6983,VALID,252,VALID,0.373437,
2008-08-01, 12:05:04,VALID,1006.35,VALID,0,VALID,93.2707,VALID,319.991,VALID,24.7567,VALID,297,VALID,0.596484,
2008-08-01, 12:06:04,VALID,1006.36,VALID,0,VALID,92.2637,VALID,315.064,VALID,24.7548,VALID,300,VALID,0.891406,
2008-08-01, 12:07:04,VALID,1006.39,VALID,0,VALID,92.4086,VALID,311.645,VALID,24.778,VALID,312,VALID,1.00234,
2008-08-01, 12:08:04,VALID,1006.42,VALID,0,VALID,92.5765,VALID,309.834,VALID,24.8346,VALID,289,VALID,0.581641,
2008-08-01, 12:09:04,VALID,1006.42,VALID,0,VALID,90.8523,VALID,301.085,VALID,24.7567,VALID,306,VALID,1.18594,
2008-08-01, 12:10:04,VALID,1006.44,VALID,0,VALID,90.9057,VALID,288.314,VALID,24.7372,VALID,293,VALID,1.05469,
2008-08-01, 12:11:04,VALID,1006.41,VALID,0,VALID,90.9286,VALID,279.364,VALID,24.6983,VALID,295,VALID,1.23867,
2008-08-01, 12:12:04,VALID,1006.39,VALID,0,VALID,92.1569,VALID,273.23,VALID,24.7567,VALID,213,VALID,0.3375,
2008-08-01, 12:13:04,VALID,1006.37,VALID,0,VALID,91.0888,VALID,262.168,VALID,24.7353,VALID,283,VALID,0.763672,
2008-08-01, 12:14:04,VALID,1006.32,VALID,0,VALID,90.4175,VALID,253.117,VALID,24.7177,VALID,291,VALID,1.34414,
2008-08-01, 12:15:04,VALID,1006.26,VALID,0,VALID,88.8917,VALID,242.256,VALID,24.6593,VALID,287,VALID,2.53789,
2008-08-01, 12:16:04,VALID,1006.23,VALID,0,VALID,90.776,VALID,230.49,VALID,24.6593,VALID,330,VALID,0.482031,
2008-08-01, 12:17:04,VALID,1006.23,VALID,0,VALID,91.7373,VALID,216.009,VALID,24.6983,VALID,307,VALID,0.320313,
2008-08-01, 12:18:04,VALID,1006.19,VALID,0,VALID,90.7379,VALID,199.115,VALID,24.6788,VALID,287,VALID,0.953125,
2008-08-01, 12:19:04,VALID,1006.23,VALID,0,VALID,91.3101,VALID,181.315,VALID,24.7177,VALID,291,VALID,0.690625,
2008-08-01, 12:20:04,VALID,1006.19,VALID,0,VALID,91.3787,VALID,164.42,VALID,24.7372,VALID,334,VALID,0.530469,
2008-08-01, 12:21:04,VALID,1006.22,VALID,0,VALID,91.4855,VALID,149.738,VALID,24.7567,VALID,357,VALID,0.271875,
2008-08-01, 12:22:04,VALID,1006.22,VALID,0,VALID,90.1352,VALID,138.676,VALID,24.7372,VALID,317,VALID,1.13281,
2008-08-01, 12:23:04,VALID,1006.27,VALID,0,VALID,90.4404,VALID,131.838,VALID,24.6983,VALID,285,VALID,0.780469,
2008-08-01, 12:24:04,VALID,1006.26,VALID,0,VALID,90.7913,VALID,127.413,VALID,24.6807,VALID,339,VALID,0.432422,
2008-08-01, 12:25:04,VALID,1006.27,VALID,0,VALID,89.6012,VALID,125.1,VALID,24.6593,VALID,289,VALID,1.06523,
2008-08-01, 12:26:04,VALID,1006.29,VALID,0,VALID,90.8295,VALID,124.296,VALID,24.6204,VALID,315,VALID,0.284766,
2008-08-01, 12:27:04,VALID,1006.3,VALID,0,VALID,91.3101,VALID,123.793,VALID,24.599,VALID,288,VALID,0.430078,
2008-08-01, 12:28:04,VALID,1006.28,VALID,0,VALID,90.387,VALID,124.597,VALID,24.6204,VALID,298,VALID,1.04609,
2008-08-01, 12:29:04,VALID,1006.33,VALID,0,VALID,90.921,VALID,125.704,VALID,24.599,VALID,338,VALID,0.576172,
2008-08-01, 12:30:04,VALID,1006.33,VALID,0,VALID,90.9134,VALID,126.206,VALID,24.6185,VALID,356,VALID,0.743359,
2008-08-01, 12:31:04,VALID,1006.3,VALID,0,VALID,91.3177,VALID,126.81,VALID,24.6593,VALID,358,VALID,0.426172,
2008-08-01, 12:32:04,VALID,1006.29,VALID,0,VALID,91.8441,VALID,127.313,VALID,24.6788,VALID,358,VALID,0.452344,
2008-08-01, 12:33:04,VALID,1006.27,VALID,0,VALID,91.4398,VALID,127.112,VALID,24.6983,VALID,357,VALID,0.623047,
2008-08-01, 12:34:04,VALID,1006.26,VALID,0,VALID,91.5161,VALID,127.011,VALID,24.6983,VALID,357,VALID,0.413672,
2008-08-01, 12:35:04,VALID,1006.26,VALID,0,VALID,91.6991,VALID,128.117,VALID,24.6964,VALID,344,VALID,0.282813,
2008-08-01, 12:36:04,VALID,1006.25,VALID,0,VALID,91.6457,VALID,130.631,VALID,24.7177,VALID,335,VALID,0.187109,
2008-08-01, 12:37:04,VALID,1006.23,VALID,0,VALID,91.6152,VALID,135.961,VALID,24.7159,VALID,336,VALID,0.547656,
2008-08-01, 12:38:04,VALID,1006.21,VALID,0,VALID,91.1728,VALID,143.906,VALID,24.7761,VALID,355,VALID,0.860937,
2008-08-01, 12:39:04,VALID,1006.22,VALID,0,VALID,90.8676,VALID,149.638,VALID,24.7567,VALID,316,VALID,0.419141,
2008-08-01, 12:40:04,VALID,1006.24,VALID,0,VALID,90.7074,VALID,153.258,VALID,24.7372,VALID,350,VALID,0.924219,
2008-08-01, 12:41:04,VALID,1006.21,VALID,0,VALID,90.5853,VALID,155.571,VALID,24.7372,VALID,337,VALID,0.542969,
2008-08-01, 12:42:04,VALID,1006.24,VALID,0,VALID,90.1734,VALID,155.772,VALID,24.7372,VALID,357,VALID,1.14883,
2008-08-01, 12:43:04,VALID,1006.24,VALID,0,VALID,90.3107,VALID,155.47,VALID,24.7586,VALID,350,VALID,0.461719,
2008-08-01, 12:44:04,VALID,1006.2,VALID,0,VALID,90.5548,VALID,154.264,VALID,24.778,VALID,342,VALID,0.443359,
2008-08-01, 12:45:04,VALID,1006.22,VALID,0,VALID,90.6692,VALID,152.353,VALID,24.7548,VALID,321,VALID,0.421094,
2008-08-01, 12:46:04,VALID,1006.21,VALID,0,VALID,89.2121,VALID,150.04,VALID,24.7567,VALID,292,VALID,0.686328,
2008-08-01, 12:47:04,VALID,1006.17,VALID,0,VALID,89.708,VALID,148.733,VALID,24.7586,VALID,325,VALID,0.419922,
2008-08-01, 12:48:04,VALID,1006.14,VALID,0,VALID,89.9903,VALID,147.224,VALID,24.7567,VALID,323,VALID,0.467578,
2008-08-01, 12:49:04,VALID,1006.16,VALID,0,VALID,89.9903,VALID,144.71,VALID,24.7956,VALID,254,VALID,0.433594,
2008-08-01, 12:50:04,VALID,1006.17,VALID,0,VALID,90.0666,VALID,140.587,VALID,24.8151,VALID,252,VALID,0.339844,
2008-08-01, 12:51:04,VALID,1006.17,VALID,0,VALID,89.8453,VALID,135.257,VALID,24.8151,VALID,317,VALID,0.557031,
2008-08-01, 12:52:04,VALID,1006.12,VALID,0,VALID,90.2954,VALID,130.229,VALID,24.8735,VALID,327,VALID,0.0785156,
2008-08-01, 12:53:04,VALID,1006.09,VALID,0,VALID,89.3952,VALID,125.804,VALID,24.8735,VALID,359,VALID,0.899609,
2008-08-01, 12:54:04,VALID,1006.1,VALID,0,VALID,89.4334,VALID,123.089,VALID,24.8522,VALID,346,VALID,0.358594,
2008-08-01, 12:55:04,VALID,1006.06,VALID,0,VALID,89.2274,VALID,121.581,VALID,24.8522,VALID,351,VALID,0.797266,
2008-08-01, 12:56:04,VALID,1006.04,VALID,0,VALID,89.2808,VALID,121.681,VALID,24.8132,VALID,350,VALID,0.489062,
2008-08-01, 12:57:04,VALID,1006.05,VALID,0,VALID,89.3342,VALID,123.29,VALID,24.8151,VALID,337,VALID,0.788672,
2008-08-01, 12:58:04,VALID,1006.01,VALID,0,VALID,88.8688,VALID,126.408,VALID,24.7743,VALID,356,VALID,1.04258,
2008-08-01, 12:59:04,VALID,1006,VALID,0,VALID,89.6165,VALID,129.927,VALID,24.7956,VALID,4,VALID,0.435156,
2008-08-01, 13:00:04,VALID,1006.04,VALID,0,VALID,89.8606,VALID,133.749,VALID,24.8151,VALID,350,VALID,0.346484,
2008-08-01, 13:01:04,VALID,1006.08,VALID,0,VALID,89.5936,VALID,137.067,VALID,24.7937,VALID,352,VALID,0.5625,
2008-08-01, 13:02:04,VALID,1006.09,VALID,0,VALID,89.9674,VALID,140.185,VALID,24.8346,VALID,250,VALID,0.0613281,
2008-08-01, 13:03:04,VALID,1006.08,VALID,0,VALID,90.1352,VALID,143.001,VALID,24.893,VALID,250,VALID,0.396484,
2008-08-01, 13:04:04,VALID,1006.07,VALID,0,VALID,90.6998,VALID,145.414,VALID,24.9319,VALID,250,VALID,0.0121094,
2008-08-01, 13:05:04,VALID,1006.1,VALID,0,VALID,90.0132,VALID,147.124,VALID,24.9709,VALID,327,VALID,0.424219,
2008-08-01, 13:06:04,VALID,1006.09,VALID,0,VALID,89.5783,VALID,148.029,VALID,24.9709,VALID,348,VALID,0.622656,
2008-08-01, 13:07:04,VALID,1006.08,VALID,0,VALID,89.3189,VALID,149.034,VALID,24.9495,VALID,339,VALID,0.451562,
2008-08-01, 13:08:04,VALID,1006.07,VALID,0,VALID,89.5325,VALID,148.632,VALID,24.9904,VALID,345,VALID,0.257813,
2008-08-01, 13:09:04,VALID,1006.07,VALID,0,VALID,89.029,VALID,148.632,VALID,24.9885,VALID,305,VALID,0.880469,
2008-08-01, 13:10:04,VALID,1006.04,VALID,0,VALID,88.9604,VALID,148.531,VALID,24.9885,VALID,277,VALID,1.06953,
2008-08-01, 13:11:04,VALID,1006.03,VALID,0,VALID,89.6927,VALID,148.833,VALID,25.0079,VALID,302,VALID,0.458984,
2008-08-01, 13:12:04,VALID,1006.01,VALID,0,VALID,88.4645,VALID,150.04,VALID,25.0117,VALID,289,VALID,0.959766,
2008-08-01, 13:13:04,VALID,1006,VALID,0,VALID,88.8078,VALID,151.951,VALID,24.9319,VALID,268,VALID,0.746484,
2008-08-01, 13:14:04,VALID,1006.04,VALID,0,VALID,90.1657,VALID,155.772,VALID,24.93,VALID,256,VALID,0.330469,
2008-08-01, 13:15:04,VALID,1006,VALID,0,VALID,89.7461,VALID,161.303,VALID,24.9495,VALID,9,VALID,0.700781,
2008-08-01, 13:16:04,VALID,1006.03,VALID,0,VALID,89.8224,VALID,167.638,VALID,24.9514,VALID,348,VALID,0.6125,
2008-08-01, 13:17:04,VALID,1006.02,VALID,0,VALID,90.776,VALID,174.376,VALID,24.9495,VALID,339,VALID,0.270703,
2008-08-01, 13:18:04,VALID,1006.01,VALID,0,VALID,90.9439,VALID,180.812,VALID,25.0098,VALID,303,VALID,0.381641,
2008-08-01, 13:19:04,VALID,1006.01,VALID,0,VALID,89.6317,VALID,186.444,VALID,24.9904,VALID,358,VALID,1.09766,
2008-08-01, 13:20:04,VALID,1006.02,VALID,0,VALID,89.8224,VALID,190.868,VALID,24.9514,VALID,349,VALID,0.504297,
2008-08-01, 13:21:04,VALID,1006.01,VALID,0,VALID,89.7461,VALID,195.193,VALID,24.9514,VALID,316,VALID,0.582422,
2008-08-01, 13:22:04,VALID,1005.98,VALID,0,VALID,89.3342,VALID,194.589,VALID,24.9514,VALID,296,VALID,0.575391,
2008-08-01, 13:23:04,VALID,1005.96,VALID,0,VALID,89.8301,VALID,193.282,VALID,24.9514,VALID,288,VALID,0.151562,
2008-08-01, 13:24:04,VALID,1005.96,VALID,0,VALID,89.6012,VALID,191.673,VALID,24.9495,VALID,291,VALID,0.626172,
2008-08-01, 13:25:04,VALID,1005.94,VALID,0,VALID,89.8453,VALID,189.461,VALID,24.9514,VALID,309,VALID,0.430078,
2008-08-01, 13:26:04,VALID,1005.94,VALID,0,VALID,88.6781,VALID,189.259,VALID,24.9709,VALID,288,VALID,1.15859,
2008-08-01, 13:27:04,VALID,1005.93,VALID,0,VALID,89.2121,VALID,189.963,VALID,24.9125,VALID,295,VALID,0.771484,
2008-08-01, 13:28:04,VALID,1005.94,VALID,0,VALID,89.9292,VALID,190.064,VALID,24.9125,VALID,300,VALID,0.333203,
2008-08-01, 13:29:04,VALID,1005.93,VALID,0,VALID,90.3107,VALID,188.354,VALID,24.93,VALID,336,VALID,0.280859,
2008-08-01, 13:30:04,VALID,1005.95,VALID,0,VALID,89.9445,VALID,184.835,VALID,24.9709,VALID,299,VALID,0.604297,
2008-08-01, 13:31:04,VALID,1005.93,VALID,0,VALID,89.4105,VALID,178.6,VALID,24.9319,VALID,311,VALID,0.790625,
2008-08-01, 13:32:04,VALID,1005.93,VALID,0,VALID,89.6851,VALID,172.465,VALID,24.9125,VALID,285,VALID,0.863281,
2008-08-01, 13:33:04,VALID,1005.91,VALID,0,VALID,90.5014,VALID,161.202,VALID,24.9125,VALID,284,VALID,0.757422,
2008-08-01, 13:34:04,VALID,1005.92,VALID,0,VALID,90.9363,VALID,149.939,VALID,24.9319,VALID,283,VALID,0.414453,
2008-08-01, 13:35:04,VALID,1005.9,VALID,0,VALID,91.3406,VALID,140.989,VALID,24.9709,VALID,288,VALID,0.175391,
2008-08-01, 13:36:04,VALID,1005.89,VALID,0,VALID,91.2719,VALID,134.05,VALID,24.9904,VALID,270,VALID,0.617969,
2008-08-01, 13:37:04,VALID,1005.92,VALID,0,VALID,90.6311,VALID,128.62,VALID,24.969,VALID,315,VALID,0.442578,
2008-08-01, 13:38:04,VALID,1005.91,VALID,0,VALID,90.5243,VALID,125.503,VALID,24.969,VALID,354,VALID,0.557813,
2008-08-01, 13:39:04,VALID,1005.91,VALID,0,VALID,90.8218,VALID,125.603,VALID,24.9904,VALID,307,VALID,0.472656,
2008-08-01, 13:40:04,VALID,1005.9,VALID,0,VALID,91.6915,VALID,127.514,VALID,25.0293,VALID,298,VALID,0.137109,
2008-08-01, 13:41:04,VALID,1005.91,VALID,0,VALID,90.7455,VALID,132.441,VALID,25.0488,VALID,298,VALID,0.735937,
2008-08-01, 13:42:04,VALID,1005.89,VALID,0,VALID,91.0583,VALID,138.676,VALID,25.0293,VALID,290,VALID,0.466797,
2008-08-01, 13:43:04,VALID,1005.9,VALID,0,VALID,91.3635,VALID,140.486,VALID,25.0293,VALID,258,VALID,0.48125,